Weather History for Zanesville, OH

Change the Weather History Date:

Friday, February 15, 2013

  Actual Average Record
Temperature  
Mean Temperature 32 °F 32 °F  
Max Temperature 37 °F 41 °F 73 °F (1954)
Min Temperature 26 °F 23 °F -5 °F (1978)
Degree Days  
Heating Degree Days 33 33  
Month to date heating degree days 539 515  
Since 1 July heating degree days 3677 3782  
Cooling Degree Days 0 0  
Month to date cooling degree days 0 0  
Year to date cooling degree days 0 0  
Moisture  
Dew Point 28 °F    
Average Humidity 88    
Maximum Humidity 100    
Minimum Humidity 75    
Precipitation  
Precipitation 0.05 in 0.07 in 1.05 in (1989)
Month to date precipitation 0.66 1.15  
Year to date precipitation 2.78 3.81  
Sea Level Pressure  
Sea Level Pressure 30.04 in    
Wind  
Wind Speed 4 mph (West)    
Max Wind Speed 14 mph    
Max Gust Speed 18 mph    
Visibility 6 miles    
Events Fog , Snow    
T = Trace of Precipitation, MM = Missing Value Source: NWS Daily Summary

Daily Weather History Graph

Daily Weather History Graph

Search for Another Location

Airport:

Trip Planner

Search our weather history database for the weather conditions in past years. The results will help you decide how hot, cold, wet, or windy it might be!

Date:

Astronomy

Feb. 15, 2013 Rise Set
Actual Time 7:20 AM EST 6:03 PM EST
Civil Twilight 6:52 AM EST 6:31 PM EST
Nautical Twilight 6:20 AM EST 7:03 PM EST
Astronomical Twilight 5:49 AM EST 7:34 PM EST
Moon 9:55 AM EST (2/15) No Moon Set
Length of Visible Light 11h 39m
Length of Day
10h 43m
Waxing Crescent, 30% of the Moon is Illuminated
Feb 15
Waxing Crescent
Feb 17
First Quarter
Feb 25
Full
Mar 4
Last Quarter
Mar 11
New

Hourly Weather History & Observations

Time (EST) Temp. Windchill Dew Point Humidity Pressure Visibility Wind Dir Wind Speed Gust Speed Precip Events Conditions
12:53 AM 36.0 °F 32.1 °F 28.0 °F 73% 29.98 in 10.0 mi West 4.6 mph - N/A   Partly Cloudy
1:53 AM 34.0 °F 29.8 °F 27.0 °F 75% 29.99 in 10.0 mi SW 4.6 mph - N/A   Partly Cloudy
2:53 AM 30.9 °F 26.2 °F 26.1 °F 82% 29.98 in 10.0 mi South 4.6 mph - N/A   Clear
3:53 AM 30.9 °F 26.2 °F 27.0 °F 85% 29.98 in 10.0 mi SSW 4.6 mph - N/A   Clear
4:53 AM 30.0 °F 26.5 °F 26.1 °F 85% 30.00 in 9.0 mi SSW 3.5 mph - N/A   Clear
5:53 AM 28.9 °F 22.8 °F 26.1 °F 89% 30.02 in 9.0 mi SSW 5.8 mph - N/A   Partly Cloudy
6:53 AM 30.0 °F 26.5 °F 27.0 °F 88% 30.03 in 9.0 mi SW 3.5 mph - N/A   Overcast
7:53 AM 30.9 °F - 27.0 °F 85% 30.04 in 7.0 mi Calm Calm - N/A   Overcast
8:53 AM 32.0 °F 28.7 °F 28.0 °F 85% 30.07 in 7.0 mi SW 3.5 mph - N/A   Mostly Cloudy
9:53 AM 33.1 °F - 28.0 °F 82% 30.08 in 8.0 mi Calm Calm - N/A   Overcast
10:53 AM 35.1 °F 28.6 °F 28.9 °F 78% 30.08 in 6.0 mi West 8.1 mph - N/A   Haze
11:08 AM 35.6 °F 31.7 °F 28.4 °F 75% 30.06 in 4.0 mi West 4.6 mph - 0.00 in Snow Light Snow
11:53 AM 35.1 °F 31.0 °F 28.9 °F 78% 30.07 in 7.0 mi West 4.6 mph - 0.00 in   Overcast
12:43 PM 35.6 °F 32.8 °F 30.2 °F 81% 30.03 in 2.0 mi WSW 3.5 mph - 0.00 in Snow Light Snow
12:53 PM 35.1 °F 32.2 °F 30.0 °F 82% 30.05 in 3.0 mi WSW 3.5 mph - 0.00 in Snow Light Snow
1:01 PM 35.6 °F - 30.2 °F 81% 30.03 in 4.0 mi Calm Calm - 0.00 in Snow Light Snow
1:30 PM 35.6 °F 31.7 °F 30.2 °F 81% 30.02 in 10.0 mi Variable 4.6 mph - 0.00 in   Overcast
1:53 PM 35.1 °F 30.1 °F 30.9 °F 85% 30.04 in 7.0 mi SSW 5.8 mph - 0.00 in   Overcast
2:21 PM 35.6 °F 30.7 °F 30.2 °F 81% 30.00 in 10.0 mi SSW 5.8 mph - N/A   Overcast
2:41 PM 35.6 °F 30.7 °F 30.2 °F 81% 30.00 in 5.0 mi Variable 5.8 mph - 0.00 in Snow Light Snow
2:53 PM 35.1 °F 29.3 °F 30.0 °F 82% 30.03 in 5.0 mi SW 6.9 mph - 0.00 in Snow Light Snow
3:08 PM 35.6 °F 32.8 °F 30.2 °F 81% 30.00 in 2.0 mi West 3.5 mph - 0.01 in Snow Light Snow
3:27 PM 33.8 °F 29.6 °F 32.0 °F 93% 30.00 in 1.8 mi NW 4.6 mph - 0.01 in Snow Light Snow
3:34 PM 33.8 °F 29.6 °F 32.0 °F 93% 30.00 in 3.0 mi NW 4.6 mph - 0.01 in Snow Light Snow
3:53 PM 34.0 °F 29.8 °F 32.0 °F 92% 30.03 in 1.2 mi NNW 4.6 mph - 0.02 in Snow Light Snow
3:56 PM 33.8 °F 29.6 °F 30.2 °F 87% 30.00 in 0.8 mi NNW 4.6 mph - 0.00 in Snow Light Snow
4:04 PM 33.8 °F 28.6 °F 30.2 °F 87% 30.00 in 0.5 mi NW 5.8 mph - 0.00 in Fog , Snow Snow
4:53 PM 30.9 °F 22.2 °F 30.0 °F 96% 30.05 in 0.5 mi NW 10.4 mph - 0.00 in Fog , Snow Snow
4:58 PM 30.2 °F 21.3 °F 28.4 °F 93% 30.03 in 0.8 mi NW 10.4 mph - 0.01 in Snow Light Snow
5:07 PM 30.2 °F 21.9 °F 28.4 °F 93% 30.03 in 1.0 mi NW 9.2 mph - 0.01 in Snow Light Snow
5:14 PM 30.2 °F 25.4 °F 28.4 °F 93% 30.03 in 2.0 mi NW 4.6 mph - 0.01 in Snow Light Snow
5:23 PM 30.2 °F 25.4 °F 28.4 °F 93% 30.03 in 5.0 mi NNW 4.6 mph - 0.02 in Snow Light Snow
5:31 PM 30.2 °F 26.7 °F 28.4 °F 93% 30.03 in 7.0 mi NW 3.5 mph - 0.02 in   Mostly Cloudy
5:53 PM 30.0 °F 26.5 °F 28.0 °F 92% 30.06 in 7.0 mi WNW 3.5 mph - 0.03 in   Partly Cloudy
6:53 PM 28.0 °F 24.2 °F 27.0 °F 96% 30.08 in 4.0 mi WSW 3.5 mph - N/A   Clear
7:48 PM 28.4 °F 24.6 °F 28.4 °F 100% 30.06 in 5.0 mi West 3.5 mph - N/A   Overcast
7:53 PM 28.9 °F 25.2 °F 28.0 °F 96% 30.09 in 5.0 mi West 3.5 mph - N/A   Overcast
8:40 PM 30.2 °F 26.7 °F 28.4 °F 93% 30.07 in 6.0 mi West 3.5 mph - N/A   Overcast
8:53 PM 30.0 °F 25.2 °F 28.0 °F 92% 30.10 in 7.0 mi NW 4.6 mph - N/A   Overcast
9:07 PM 30.2 °F 21.9 °F 28.4 °F 93% 30.08 in 5.0 mi NNW 9.2 mph - 0.00 in Snow Light Snow
9:38 PM 28.4 °F 21.2 °F 24.8 °F 86% 30.09 in 4.0 mi North 6.9 mph - 0.00 in Snow Light Snow
9:53 PM 28.9 °F 22.8 °F 25.0 °F 85% 30.12 in 5.0 mi NNW 5.8 mph - 0.00 in Snow Light Snow
10:37 PM 28.4 °F 24.6 °F 24.8 °F 86% 30.09 in 10.0 mi NW 3.5 mph - 0.00 in   Overcast
10:53 PM 28.0 °F 24.2 °F 25.0 °F 88% 30.12 in 10.0 mi NW 3.5 mph - 0.00 in   Overcast
11:53 PM 26.1 °F - 24.1 °F 92% 30.11 in 10.0 mi Calm Calm - N/A   Overcast